BREEZE-M DEB, 35538

Orbit data source: Space-Track

BREEZE-M DEB, 35538 is space debris in HEO originally from a launch on Tue, 28 Feb 2006 UTC launched from the Tyuratam Missile And Space Complex (TTMTR). Debris objects in space refer to the collection of defunct objects orbiting the Earth. Examples of debris include non-operational satellites, rocket bodies, and fragments generated from explosions, collisions, or faulty payload assembly.

Loading next visibility...
Identifier
35538, 2006-006CF
Orbit
HEO
Country
Flag of CISCIS
Related business
Manufacturer
Khrunichev
Mission
Spacecraft
Bus & Motor
Unknown
Mass
Unknown
Launch date (UTC)
2006-02-28 (20 years ago)
Launch vehicle
Unknown
Launch site
Tyuratam Missile And Space Complex (TTMTR)
Object type
Payload
Rocket body
Debris
Shape & HBR
Unknown shape, 1.1 m
Radar Cross Section
Medium (>0.1 m² and <1 m²)

Expand to show TLE details & history
Last TLE update: 1 year ago

TLE from 1 year ago
0 BREEZE-M DEB
1 35538U 06006CF  25129.40108414  .00001591  00000-0  88438-2 0  9996
2 35538  51.7408 137.9469 5062338 204.9919 340.5415  5.09276881222904
Epoch: 2025-05-09T09:37Z
TLE epoch observation values (Epoch: 2025-05-09T09:37:33.669Z)
Latitude
27.16361°
Longitude
-77.68048°
Altitude
2,119.837 km
Speed
8.12 km/s
True Right ascension
19h 36m 40s
True Declination
27° 02' 48"
Sunlit
Object was in daylight at epoch
Visualization orbit readout
Latitude
Unknown
Longitude
Unknown
Altitude
Unknown
Speed
Unknown
Apparent Right ascension
Unknown
Apparent Declination
Unknown
Sunlit
N/A
Visualization observer readout
Local Sidereal Time
12:54:48
Azimuth
Unknown
Elevation
Unknown
Doppler factor
Unknown
Orbital elements
Apogee altitude
15,116.801 km
Perigee altitude
668.228 km
Semi-major axis
14,270.652 km
Eccentricity
0.50623
Inclination
51.7408°
RAAN
137.9469°
Arg. of periapsis
204.9919°
True anomaly
299.60535°
Mean anomaly
340.5415°
Eccentric anomaly
323.14416°
Mean motion
1.27314 °/min
Orbital period
282.76 mins
BSTAR
0.0088438
Loading maneuver chart data...
Computing Atmospheric mass density...
Loading historical data...
Loading historical data...
Loading historical data...
Loading historical data...
Loading historical data...
Loading historical data...
Loading historical data...

Documentation

Showing up to 5 results
|